TimeCST,TemperatureF,Dew PointF,Humidity,Sea Level PressureIn,VisibilityMPH,Wind Direction,Wind SpeedMPH,Gust SpeedMPH,PrecipitationIn,Events,Conditions,WindDirDegrees,DateUTC
12:52 AM,46.9,34.0,61,30.09,10.0,South,3.5,-,N/A,,Clear,180,2012-11-30 06:52:00
1:52 AM,45.0,33.1,63,30.08,10.0,South,3.5,-,N/A,,Clear,170,2012-11-30 07:52:00
2:52 AM,45.0,32.0,60,30.08,10.0,Calm,Calm,-,N/A,,Clear,0,2012-11-30 08:52:00
3:52 AM,42.1,30.9,65,30.08,10.0,Calm,Calm,-,N/A,,Clear,0,2012-11-30 09:52:00
4:52 AM,36.0,30.0,79,30.08,10.0,Calm,Calm,-,N/A,,Clear,0,2012-11-30 10:52:00
5:52 AM,39.0,30.9,73,30.08,10.0,Calm,Calm,-,N/A,,Clear,0,2012-11-30 11:52:00
6:52 AM,36.0,30.9,82,30.10,10.0,Calm,Calm,-,N/A,,Clear,0,2012-11-30 12:52:00
7:52 AM,36.0,30.0,79,30.12,10.0,Calm,Calm,-,N/A,,Clear,0,2012-11-30 13:52:00
8:52 AM,48.0,37.9,68,30.12,10.0,SSW,4.6,-,N/A,,Clear,200,2012-11-30 14:52:00
9:52 AM,55.0,43.0,64,30.12,10.0,SSW,9.2,-,N/A,,Clear,200,2012-11-30 15:52:00
10:52 AM,59.0,45.0,60,30.11,10.0,South,9.2,-,N/A,,Clear,180,2012-11-30 16:52:00
11:52 AM,61.0,46.9,60,30.08,10.0,SSW,6.9,-,N/A,,Clear,210,2012-11-30 17:52:00
12:52 PM,64.0,48.0,56,30.05,10.0,South,6.9,-,N/A,,Clear,170,2012-11-30 18:52:00
1:52 PM,63.0,48.9,60,30.04,10.0,South,5.8,-,N/A,,Clear,180,2012-11-30 19:52:00
2:52 PM,64.9,50.0,58,30.03,10.0,South,5.8,-,N/A,,Clear,190,2012-11-30 20:52:00
3:52 PM,64.0,50.0,60,30.04,10.0,South,10.4,16.1,N/A,,Clear,190,2012-11-30 21:52:00
4:52 PM,60.1,50.0,69,30.04,9.0,South,8.1,-,N/A,,Clear,190,2012-11-30 22:52:00
5:52 PM,54.0,48.9,83,30.03,8.0,Calm,Calm,-,N/A,,Clear,0,2012-11-30 23:52:00
6:52 PM,46.9,44.1,90,30.03,6.0,Calm,Calm,-,N/A,,Clear,0,2012-12-01 00:52:00
7:52 PM,45.0,42.1,90,30.04,3.0,Calm,Calm,-,N/A,,Clear,0,2012-12-01 01:52:00
7:56 PM,44.6,42.8,93,30.03,1.2,Calm,Calm,-,N/A,,Partly Cloudy,0,2012-12-01 01:56:00
8:03 PM,44.6,42.8,93,30.03,0.2,Calm,Calm,-,N/A,Fog,Fog,0,2012-12-01 02:03:00
8:11 PM,44.6,42.8,93,30.03,0.5,Calm,Calm,-,N/A,Fog,Fog,0,2012-12-01 02:11:00
8:15 PM,44.6,42.8,93,30.04,1.2,Calm,Calm,-,N/A,,Mostly Cloudy,0,2012-12-01 02:15:00
8:19 PM,44.6,41.0,87,30.04,2.0,Calm,Calm,-,N/A,,Mostly Cloudy,0,2012-12-01 02:19:00
8:23 PM,42.8,41.0,93,30.03,3.0,Calm,Calm,-,N/A,,Mostly Cloudy,0,2012-12-01 02:23:00
8:50 PM,42.8,39.2,87,30.03,1.5,Calm,Calm,-,N/A,,Overcast,0,2012-12-01 02:50:00
8:52 PM,43.0,39.9,89,30.04,0.8,Calm,Calm,-,N/A,,Overcast,0,2012-12-01 02:52:00
9:02 PM,44.6,42.8,93,30.03,1.0,Calm,Calm,-,N/A,,Overcast,0,2012-12-01 03:02:00
9:04 PM,44.6,42.8,93,30.03,1.5,Calm,Calm,-,N/A,,Overcast,0,2012-12-01 03:04:00
9:08 PM,46.4,44.6,93,30.03,3.0,Calm,Calm,-,N/A,,Overcast,0,2012-12-01 03:08:00
9:52 PM,50.0,46.9,89,30.03,4.0,SSE,3.5,-,N/A,,Overcast,160,2012-12-01 03:52:00
10:52 PM,55.0,51.1,86,30.02,6.0,South,5.8,-,N/A,,Overcast,180,2012-12-01 04:52:00
11:52 PM,55.9,52.0,87,30.01,6.0,South,6.9,-,N/A,,Overcast,180,2012-12-01 05:52:00